This demonstration page uses our WeatherBlox Daily Observations layout. Learn more.

Hourly Observations for February 28, 2017

Temp ( °F °C ) Dew Point ( °F °C ) Humidity (%) Winds ( mph kmh ) Pressure ( in mb ) Visibility ( mi km ) Precip ( " mm )
12:54 am 00:54 Clear 35 1.7 31 -0.6 85 85 Calm 29.62 1003 10 16.0934 0 0
1:54 am 01:54 Clear 40 4.4 38 3.3 93 93 SE 6 9 29.59 1002 10 16.0934 0 0
2:54 am 02:54 Clear 45 7.2 44 6.7 97 97 S 8 13 29.58 1002 7 11.26538 0 0
3:54 am 03:54 Clear 46 7.8 43 6.1 89 89 SW 6 9 29.57 1001 10 16.0934 0 0
4:54 am 04:54 Clear 45 7.2 38 3.3 77 77 SW 9 15 29.58 1002 10 16.0934 0 0
5:54 am 05:54 Clear 43 6.1 35 1.7 74 74 WSW 5 7 29.61 1003 10 16.0934 0 0
6:54 am 06:54 Clear 37 2.8 34 1.1 89 89 S 8 13 29.63 1003 10 16.0934 0 0
7:54 am 07:54 Partly Cloudy 37 2.8 34 1.1 89 89 S 7 11 29.65 1004 8 12.87472 0 0
8:04 am 08:04 Mostly Cloudy 39 4 36 2 87 87 S 7 11 29.68 1005 7 11.26538 0 0
8:54 am 08:54 Cloudy 42 5.6 38 3.3 85 85 W 7 11 29.67 1005 8 12.87472 0 0
9:35 am 09:35 Cloudy 43 6.1 39 3.9 86 86 W 6 9 29.71 1006 7 11.26538 0 0
9:54 am 09:54 Cloudy with Haze 44 6.7 39 3.9 83 83 WNW 5 7 29.69 1006 6 9.65604 0 0
10:54 am 10:54 Cloudy with Haze 44 6.7 39 3.9 83 83 W 6 9 29.69 1005 6 9.65604 0 0
11:54 am 11:54 Cloudy 46 7.8 37 2.8 71 71 NW 13 20 29.68 1005 9 14.48406 0 0
12:19 pm 12:19 Cloudy 45 7.2 36 2.2 71 71 NNW 14 22 29.68 1005 9 14.48406 0 0
12:54 pm 12:54 Cloudy 46 7.8 35 1.7 66 66 NNW 12 19 29.66 1004 10 16.0934 0 0
1:54 pm 13:54 Cloudy 47 8.3 36 2.2 66 66 N 13 20 29.63 1003 10 16.0934 0 0
2:50 pm 14:50 Cloudy 46 8 36 2 66 66 NNW 13 20 29.62 1003 10 16.0934 0 0
2:54 pm 14:54 Cloudy 46 7.8 36 2.2 68 68 N 13 20 29.63 1003 10 16.0934 0 0
3:54 pm 15:54 Cloudy 45 7.2 36 2.2 71 71 NNW 10 17 29.65 1004 10 16.0934 0 0
4:54 pm 16:54 Cloudy 44 6.7 35 1.7 71 71 N 15 24 29.66 1005 10 16.0934 0 0
5:54 pm 17:54 Cloudy 43 6.1 35 1.7 74 74 NNW 13 20 29.71 1006 10 16.0934 0 0
6:54 pm 18:54 Cloudy 41 5 35 1.7 79 79 NNW 18 30 29.73 1007 10 16.0934 0 0.0254
7:54 pm 19:54 Cloudy 40 4.4 34 1.1 79 79 N 16 26 29.75 1008 10 16.0934 0 0
8:54 pm 20:54 Cloudy 40 4.4 32 0 73 73 NNW 17 28 29.81 1010 10 16.0934 0 0
9:54 pm 21:54 Cloudy 39 3.9 31 -0.6 73 73 NW 12 19 29.83 1010 10 16.0934 0 0
10:54 pm 22:54 Mostly Cloudy 37 2.8 32 0 82 82 NNW 13 20 29.82 1010 10 16.0934 0 0
11:54 pm 23:54 Mostly Clear 36 2.2 32 0 86 86 NW 12 19 29.83 1010 10 16.0934 0 0

Powered by AerisWeather